Regional Weather Roundup
Issued by NWS

Home | Current Version | Previous Version | Text Only | Print | Product List | Glossary On
Versions: 1 2 3 4 5 6 7 8 9 10 11 12 13 14 15 16 17 18 19 20 21 22 23 24 25 26 27 28 29 30 31 32 33 34 35 36 37 38 39 40 41 42 43 44 45 46 47 48 49 50
000
ASCA44 KEWX 212020
RWRMX

LATIN AMERICA AND CARIBBEAN REGIONAL WEATHER ROUNDUP
NATIONAL WEATHER SERVICE AUSTIN/SAN ANTONIO TX
300 PM CDT MON AUG 21 2017

NOTE: "FAIR" INDICATED FEW OR NO CLOUDS BELOW 12,000 FEET WITH NO
SIGNIFICANT WEATHER AND/OR OBSTRUCTIONS TO VISIBILITY.

BAJA CALIFORNIA

CITY           SKY/WX    TMP DP  RH WIND       PRES   REMARKS
LORETO         MOSUNNY   91  81  70 NE10      29.84F HX 110
LA PAZ         MOSUNNY   97  61  30 CALM      29.85F HX  97
MEXICALI       SUNNY    100  50  18 NE7       29.86F HX  97
S.J. DEL CABO  MOSUNNY   90  73  58 SE7       29.88F HX  98
TIJUANA        SUNNY     75  61  60 W8        30.02F

NORTHWESTERN MEXICO

CITY           SKY/WX    TMP DP  RH WIND       PRES   REMARKS
CULIACAN       PTSUNNY   93  75  55 CALM      29.86F HX 104
DURANGO        SUNNY     77  54  44 N3        30.28
GUAYMAS        MOSUNNY   95  81  63 S12       29.83S HX 115
HERMOSILLO     MOSUNNY   99  70  39 CALM      29.91F HX 105
CD. JUAREZ     MOSUNNY   81  63  54 CALM      30.17
LOS MOCHIS     MOSUNNY   91  72  52 W10       29.88F HX  98
OBREGON        PTSUNNY   97  66  36 W6        29.85F HX 100

NORTHEASTERN MEXICO

CITY           SKY/WX    TMP DP  RH WIND       PRES   REMARKS
CHIHUAHUA      MOSUNNY   79  64  61 E3        30.20F
MATAMOROS      PTSUNNY   93  73  52 E13       29.98F HX 102
MONCLOVA       MOSUNNY   88  64  45 NE9       30.06S
MONTERREY      MOSUNNY   91  61  35 E7        30.00F HX  91
NUEVO LAREDO   MOSUNNY   93  68  43 SE14      30.00F HX  97
PIEDRAS NEGRAS MOSUNNY   91  70  49 E7        30.05  HX  97
REYNOSA        PTSUNNY   91  63  38 NE14      29.96F HX  92
SALTILLO       SUNNY     82  64  54 N12       30.22F
TORREON        MOSUNNY   90  59  35 N5        30.11F
CD. VICTORIA   PTSUNNY   95  61  31 E6        29.98F HX  95

WESTERN MEXICO

CITY           SKY/WX    TMP DP  RH WIND       PRES   REMARKS
AGUASCALIENTES MOSUNNY   79  48  34 SE7       30.28F
COLIMA         PTSUNNY   82  73  74 SW6       29.97F
DEL BAJIO      MOSUNNY   79  55  44 NW6       30.29F
GUADALAJARA    MOSUNNY   79  57  47 E7        30.19F
MANZANILLO     MOSUNNY   91  79  66 SW12      29.83F HX 107
MAZATLAN       MOSUNNY   90  79  70 W5        29.87F HX 105
P. VALLARTA    MOSUNNY   88  79  74 SW8       29.86F HX 102
URUAPAN        MOSUNNY   75  66  73 S7        30.17F
ZACATECAS      SUNNY     79  45  29 E12       30.33F

CENTRAL MEXICO

CITY           SKY/WX    TMP DP  RH WIND       PRES   REMARKS
CUERNAVACA     MOSUNNY   79  66  65 SW2       30.11F
MEXICO CITY    PTSUNNY   73  46  38 NE7       30.31F
MORELIA        PTSUNNY   77  59  53 SW5       30.23F
POZA RICA      MOSUNNY   95  79  59 NW6       30.00S HX 112
PUEBLA         MOSUNNY   75  50  41 N5        30.31F
QUERETARO      PTSUNNY   72  55  56 NE13      30.34S
S. LUIS POTOSI MOSUNNY   79  43  27 NE12      30.26F
TAMPICO        PTSUNNY   86  75  70 NE12      29.96F HX  95
TOLUCA         PTSUNNY   68  45  42 NE7       30.37F

SOUTHERN MEXICO

CITY           SKY/WX    TMP DP  RH WIND       PRES   REMARKS
ACAPULCO       PTSUNNY   88  79  74 SW8       29.81F HX 102
B. DE HUATULCO PTSUNNY  N/A N/A N/A CALM      29.87F
OAXACA         PTSUNNY   79  48  34 W8        30.15F
P. ESCONDIDO   PTSUNNY   84  77  79 SW12      29.92F HX  94
VERACRUZ       MOSUNNY   88  75  66 N8        29.94F HX  97
ZIHUATANEJO      N/A    N/A N/A N/A MISG        N/A

YUCATAN PENINSULA

CITY           SKY/WX    TMP DP  RH WIND       PRES   REMARKS
CAMPECHE       MOSUNNY   88  79  74 N9        29.87F HX 102
CANCUN         CLOUDY    81  77  89 NE5       29.93F
CHETUMAL       PTSUNNY   79  73  83 CALM      29.88F
CD. DEL CARMEN MOSUNNY  N/A N/A N/A N9        29.91F
COZUMEL        RAIN      79  77  94 SE18      29.91F
MERIDA         PTSUNNY   93  73  52 NE9       29.90F HX 102
MINATITLAN     MOSUNNY   86  79  79 N6        29.89F HX  99
TAPACHULA      MOSUNNY   90  79  70 SW12      29.82F HX 105
TUX. GUTIERREZ MOSUNNY   88  70  55 NW13      29.92F HX  92
VILLAHERMOSA   PTSUNNY   90  73  58 CALM      29.91F HX  98

CENTRAL AMERICA

CITY           SKY/WX    TMP DP  RH WIND       PRES   REMARKS
BELIZE CITY    LGT RAIN  77  77 100 SE6       29.89
MANAGUA        PTCLDY    90  73  58 SE14      29.77F HX  98

CARIBBEAN

CITY           SKY/WX    TMP DP  RH WIND       PRES   REMARKS
ARUBA          MOSUNNY   88  77  70 E18       29.86S HX 100
CURACAO        MOSUNNY   84  77  79 E10       29.89F HX  94
KINGSTON       MOSUNNY   88  79  74 SE23      29.89S HX 102
NASSAU         PTSUNNY   88  79  74 NE6       30.01R HX 102
SAN JUAN       MOSUNNY   84  77  79 E13       29.97F HX  94
SANTO DOMINGO  PTSUNNY   82  81  94 E5        29.94S HX  95
ST. CROIX      MOSUNNY   84  75  74 NE10G18   29.98F HX  92
ST. KITTS      PTSUNNY   84  79  84 NE14      29.97S HX  96
ST. MAARTEN    MOSUNNY   86  79  79 E10       29.97S HX  99
ST. THOMAS     SUNNY     84  75  74 E8        29.97F HX  92

$$





USA.gov is the U.S. government's official web portal to all federal, state and local government web resources and services.